| time (UTC) | temp C | wind direction | speed KPH | gust KPH | rain 1hr cm | rain 24hr cm | rain mn cm | humidity % | barometer mb |
| 20260506035547 | 19 | 310 | 0.0 | 9.7 | 0.00 | 0.00 | 0.00 | 75 | 1010.9 |
| 20260506035044 | 20 | 227 | 1.6 | 3.2 | 0.00 | 0.00 | 0.00 | 75 | 1010.8 |
| 20260506034541 | 20 | 44 | 0.0 | 6.4 | 0.00 | 0.00 | 0.00 | 75 | 1010.7 |
| 20260506034038 | 20 | 294 | 1.6 | 4.8 | 0.00 | 0.00 | 0.00 | 75 | 1010.9 |
| 20260506033535 | 20 | 339 | 3.2 | 3.2 | 0.00 | 0.00 | 0.00 | 75 | 1010.5 |
| 20260506033032 | 20 | 13 | 3.2 | 6.4 | 0.00 | 0.00 | 0.00 | 75 | 1010.4 |
| 20260506032530 | 20 | 291 | 1.6 | 4.8 | 0.00 | 0.00 | 0.00 | 74 | 1010.7 |
| 20260506032026 | 21 | 236 | 1.6 | 1.6 | 0.00 | 0.00 | 0.00 | 75 | 1010.3 |
| 20260506031524 | 21 | 327 | 0.0 | 1.6 | 0.00 | 0.00 | 0.00 | 75 | 1010.0 |
| 20260506031021 | 21 | 227 | 1.6 | 3.2 | 0.00 | 0.00 | 0.00 | 74 | 1010.3 |
| 20260506030519 | 21 | 356 | 1.6 | 4.8 | 0.00 | 0.00 | 0.00 | 73 | 1010.3 |
| 20260506030016 | 21 | 61 | 1.6 | 3.2 | 0.00 | 0.00 | 0.00 | 73 | 1010.0 |
| 20260506025512 | 21 | 296 | 1.6 | 3.2 | 0.00 | 0.00 | 0.00 | 73 | 1009.9 |
| 20260506025009 | 21 | 293 | 0.0 | 3.2 | 0.00 | 0.00 | 0.00 | 73 | 1009.8 |
| 20260506024506 | 22 | 25 | 4.8 | 9.7 | 0.00 | 0.00 | 0.00 | 73 | 1009.7 |
| 20260506024001 | 22 | 230 | 1.6 | 3.2 | 0.00 | 0.00 | 0.00 | 72 | 1009.3 |
| 20260506023458 | 22 | 353 | 0.0 | 3.2 | 0.00 | 0.00 | 0.00 | 72 | 1009.3 |
| 20260506022955 | 23 | 210 | 0.0 | 3.2 | 0.00 | 0.00 | 0.00 | 71 | 1009.1 |
| 20260506022453 | 23 | 248 | 0.0 | 4.8 | 0.00 | 0.00 | 0.00 | 70 | 1008.9 |
| 20260506021951 | 23 | 229 | 1.6 | 3.2 | 0.00 | 0.00 | 0.00 | 70 | 1008.6 |
| 20260506021448 | 23 | 281 | 0.0 | 1.6 | 0.00 | 0.00 | 0.00 | 70 | 1008.7 |
| 20260506020945 | 23 | 337 | 0.0 | 3.2 | 0.00 | 0.00 | 0.00 | 70 | 1008.4 |
| 20260506020442 | 23 | 13 | 0.0 | 3.2 | 0.00 | 0.00 | 0.00 | 69 | 1008.3 |
| 20260506015939 | 23 | 285 | 0.0 | 1.6 | 0.00 | 0.00 | 0.00 | 69 | 1008.5 |
| 20260506015437 | 23 | 249 | 0.0 | 3.2 | 0.00 | 0.00 | 0.00 | 69 | 1008.4 |
| 20260506014934 | 23 | 259 | 0.0 | 1.6 | 0.00 | 0.00 | 0.00 | 68 | 1008.5 |
| 20260506014431 | 23 | 245 | 0.0 | 0.0 | 0.00 | 0.00 | 0.00 | 68 | 1008.5 |
| 20260506013927 | 23 | 9 | 3.2 | 6.4 | 0.00 | 0.00 | 0.00 | 67 | 1007.9 |
| 20260506013425 | 23 | 346 | 0.0 | 1.6 | 0.00 | 0.00 | 0.00 | 67 | 1007.7 |
| 20260506012921 | 23 | 285 | 0.0 | 3.2 | 0.00 | 0.00 | 0.00 | 66 | 1008.0 |
| 20260506012418 | 23 | 327 | 0.0 | 1.6 | 0.00 | 0.00 | 0.00 | 65 | 1007.9 |
| 20260506011915 | 23 | 244 | 1.6 | 3.2 | 0.00 | 0.00 | 0.00 | 66 | 1008.2 |
| 20260506011412 | 24 | 326 | 1.6 | 3.2 | 0.00 | 0.00 | 0.00 | 67 | 1007.9 |
| 20260506010909 | 24 | 234 | 0.0 | 1.6 | 0.00 | 0.00 | 0.00 | 68 | 1007.6 |
| 20260506010407 | 24 | 259 | 0.0 | 3.2 | 0.00 | 0.00 | 0.00 | 68 | 1007.7 |
| 20260506005904 | 25 | 17 | 0.0 | 3.2 | 0.00 | 0.00 | 0.00 | 67 | 1007.7 |
| 20260506005401 | 25 | 80 | 0.0 | 0.0 | 0.00 | 0.00 | 0.00 | 66 | 1007.5 |
| 20260506004856 | 25 | 350 | 0.0 | 1.6 | 0.00 | 0.00 | 0.00 | 65 | 1007.7 |
| 20260506004355 | 26 | 42 | 0.0 | 1.6 | 0.00 | 0.00 | 0.00 | 64 | 1007.5 |
| 20260506003850 | 26 | 272 | 0.0 | 1.6 | 0.00 | 0.00 | 0.00 | 64 | 1007.3 |
| 20260506003347 | 26 | 275 | 0.0 | 1.6 | 0.00 | 0.00 | 0.00 | 63 | 1007.2 |
| 20260506002843 | 26 | 302 | 0.0 | 3.2 | 0.00 | 0.00 | 0.00 | 62 | 1007.0 |
| 20260506002340 | 27 | 14 | 0.0 | 3.2 | 0.00 | 0.00 | 0.00 | 62 | 1007.3 |
| 20260506001835 | 27 | 32 | 1.6 | 1.6 | 0.00 | 0.00 | 0.00 | 62 | 1007.5 |
| 20260506001333 | 27 | 256 | 0.0 | 0.0 | 0.00 | 0.00 | 0.00 | 61 | 1007.4 |
| 20260506000829 | 27 | 265 | 1.6 | 1.6 | 0.00 | 0.00 | 0.00 | 60 | 1007.4 |
| 20260506000329 | 27 | 344 | 0.0 | 0.0 | 0.00 | 0.00 | 0.00 | 60 | 1006.8 |
| 20260505235824 | 28 | 348 | 0.0 | 4.8 | 0.00 | 0.00 | 0.00 | 59 | 1006.6 |
| 20260505235321 | 28 | 329 | 1.6 | 6.4 | 0.00 | 0.00 | 0.00 | 58 | 1006.3 |
| 20260505234818 | 29 | 215 | 0.0 | 4.8 | 0.00 | 0.00 | 0.00 | 55 | 1006.7 |
| 20260505234316 | 29 | 271 | 0.0 | 9.7 | 0.00 | 0.00 | 0.00 | 52 | 1006.6 |
| 20260505233813 | 29 | 303 | 1.6 | 3.2 | 0.00 | 0.00 | 0.00 | 51 | 1006.6 |
| 20260505233311 | 29 | 255 | 0.0 | 3.2 | 0.00 | 0.00 | 0.00 | 53 | 1006.5 |
| 20260505232808 | 30 | 12 | 1.6 | 3.2 | 0.00 | 0.00 | 0.00 | 67 | 1006.4 |
| 20260505232305 | 30 | 214 | 3.2 | 11.3 | 0.00 | 0.00 | 0.00 | 66 | 1006.1 |
| 20260505231801 | 30 | 164 | 6.4 | 9.7 | 0.00 | 0.00 | 0.00 | 66 | 1006.0 |
| 20260505231300 | 30 | 135 | 6.4 | 12.9 | 0.00 | 0.00 | 0.00 | 65 | 1005.9 |
| 20260505230758 | 30 | 97 | 1.6 | 6.4 | 0.00 | 0.00 | 0.00 | 64 | 1005.7 |
| 20260505230254 | 30 | 148 | 4.8 | 6.4 | 0.00 | 0.00 | 0.00 | 64 | 1005.7 |
| 20260505225751 | 31 | 67 | 3.2 | 6.4 | 0.00 | 0.00 | 0.00 | 63 | 1005.8 |
| 20260505225249 | 31 | 349 | 1.6 | 6.4 | 0.00 | 0.00 | 0.00 | 62 | 1005.8 |
| 20260505224743 | 32 | 99 | 8.0 | 12.9 | 0.00 | 0.00 | 0.00 | 60 | 1005.8 |
| 20260505224241 | 32 | 230 | 3.2 | 4.8 | 0.00 | 0.00 | 0.00 | 58 | 1005.7 |
| 20260505223738 | 32 | 26 | 3.2 | 4.8 | 0.00 | 0.00 | 0.00 | 56 | 1005.8 |
| 20260505223235 | 32 | 186 | 0.0 | 1.6 | 0.00 | 0.00 | 0.00 | 53 | 1005.5 |
| 20260505222731 | 32 | 95 | 3.2 | 6.4 | 0.00 | 0.00 | 0.00 | 52 | 1005.6 |
| 20260505222227 | 32 | 322 | 3.2 | 6.4 | 0.00 | 0.00 | 0.00 | 53 | 1005.4 |
| 20260505221724 | 32 | 209 | 1.6 | 3.2 | 0.00 | 0.00 | 0.00 | 53 | 1005.3 |
| 20260505221221 | 32 | 86 | 1.6 | 4.8 | 0.00 | 0.00 | 0.00 | 51 | 1005.7 |
| 20260505220718 | 33 | 95 | 4.8 | 4.8 | 0.00 | 0.00 | 0.00 | 51 | 1005.4 |
| 20260505220216 | 34 | 219 | 3.2 | 14.5 | 0.00 | 0.00 | 0.00 | 49 | 1005.6 |
| 20260505215713 | 33 | 217 | 1.6 | 4.8 | 0.00 | 0.00 | 0.00 | 50 | 1005.6 |
| 20260505215211 | 34 | 271 | 0.0 | 4.8 | 0.00 | 0.00 | 0.00 | 49 | 1005.7 |
| 20260505214708 | 33 | 94 | 0.0 | 6.4 | 0.00 | 0.00 | 0.00 | 51 | 1005.6 |
| 20260505214206 | 32 | 171 | 4.8 | 6.4 | 0.00 | 0.00 | 0.00 | 51 | 1005.8 |
| 20260505213703 | 33 | 309 | 1.6 | 4.8 | 0.00 | 0.00 | 0.00 | 51 | 1005.8 |
| 20260505213200 | 33 | 15 | 3.2 | 6.4 | 0.00 | 0.00 | 0.00 | 51 | 1005.8 |
| 20260505212656 | 33 | 193 | 3.2 | 6.4 | 0.00 | 0.00 | 0.00 | 51 | 1005.9 |
| 20260505212153 | 32 | 200 | 3.2 | 6.4 | 0.00 | 0.00 | 0.00 | 52 | 1006.0 |
| 20260505211650 | 33 | 244 | 4.8 | 9.7 | 0.00 | 0.00 | 0.00 | 51 | 1005.9 |
| 20260505211148 | 33 | 181 | 1.6 | 6.4 | 0.00 | 0.00 | 0.00 | 51 | 1006.0 |
| 20260505210644 | 33 | 251 | 3.2 | 11.3 | 0.00 | 0.00 | 0.00 | 52 | 1005.8 |
| 20260505210141 | 33 | 226 | 4.8 | 9.7 | 0.00 | 0.00 | 0.00 | 52 | 1006.1 |
| 20260505205638 | 32 | 119 | 3.2 | 11.3 | 0.00 | 0.00 | 0.00 | 54 | 1006.2 |
| 20260505205136 | 32 | 151 | 4.8 | 6.4 | 0.00 | 0.00 | 0.00 | 54 | 1006.2 |
| 20260505204633 | 32 | 227 | 8.0 | 11.3 | 0.00 | 0.00 | 0.00 | 54 | 1006.4 |
| 20260505204131 | 31 | 219 | 3.2 | 9.7 | 0.00 | 0.00 | 0.00 | 54 | 1006.3 |
| 20260505203628 | 32 | 73 | 4.8 | 14.5 | 0.00 | 0.00 | 0.00 | 54 | 1006.5 |
| 20260505203125 | 31 | 206 | 1.6 | 11.3 | 0.00 | 0.00 | 0.00 | 57 | 1006.5 |
| 20260505202620 | 31 | 190 | 4.8 | 11.3 | 0.00 | 0.00 | 0.00 | 56 | 1006.4 |
| 20260505202116 | 31 | 194 | 8.0 | 11.3 | 0.00 | 0.00 | 0.00 | 56 | 1006.5 |
| 20260505201613 | 33 | 3 | 4.8 | 6.4 | 0.00 | 0.00 | 0.00 | 55 | 1006.5 |
| 20260505201111 | 32 | 359 | 3.2 | 9.7 | 0.00 | 0.00 | 0.00 | 57 | 1006.4 |
| 20260505200609 | 32 | 263 | 3.2 | 6.4 | 0.00 | 0.00 | 0.00 | 57 | 1006.5 |
| 20260505200105 | 31 | 21 | 3.2 | 4.8 | 0.00 | 0.00 | 0.00 | 59 | 1006.4 |
| 20260505195601 | 31 | 26 | 1.6 | 6.4 | 0.00 | 0.00 | 0.00 | 59 | 1006.6 |
| 20260505195059 | 31 | 172 | 4.8 | 20.9 | 0.00 | 0.00 | 0.00 | 59 | 1006.7 |
| 20260505194556 | 32 | 165 | 1.6 | 11.3 | 0.00 | 0.00 | 0.00 | 61 | 1006.5 |
| 20260505194051 | 31 | 37 | 1.6 | 6.4 | 0.00 | 0.00 | 0.00 | 62 | 1006.8 |
| 20260505193549 | 31 | 108 | 3.2 | 12.9 | 0.00 | 0.00 | 0.00 | 62 | 1006.5 |
| 20260505193046 | 31 | 66 | 3.2 | 11.3 | 0.00 | 0.00 | 0.00 | 63 | 1006.8 |
| 20260505192544 | 31 | 170 | 3.2 | 14.5 | 0.00 | 0.00 | 0.00 | 63 | 1006.6 |
| 20260505192042 | 31 | 187 | 3.2 | 9.7 | 0.00 | 0.00 | 0.00 | 63 | 1006.9 |
| 20260505191540 | 30 | 139 | 4.8 | 11.3 | 0.00 | 0.00 | 0.00 | 64 | 1006.7 |
| 20260505191037 | 30 | 33 | 3.2 | 6.4 | 0.00 | 0.00 | 0.00 | 65 | 1007.0 |
| 20260505190532 | 29 | 134 | 1.6 | 9.7 | 0.00 | 0.00 | 0.00 | 65 | 1006.9 |
| 20260505190028 | 29 | 218 | 6.4 | 14.5 | 0.00 | 0.00 | 0.00 | 65 | 1007.0 |
| 20260505185525 | 29 | 217 | 4.8 | 11.3 | 0.00 | 0.00 | 0.00 | 65 | 1007.0 |
| 20260505185021 | 29 | 340 | 1.6 | 9.7 | 0.00 | 0.00 | 0.00 | 66 | 1007.0 |
| 20260505184518 | 28 | 36 | 3.2 | 9.7 | 0.00 | 0.00 | 0.00 | 66 | 1007.0 |
| 20260505184015 | 28 | 164 | 4.8 | 12.9 | 0.00 | 0.00 | 0.00 | 66 | 1007.0 |
| 20260505183512 | 29 | 0 | 6.4 | 14.5 | 0.00 | 0.00 | 0.00 | 66 | 1007.1 |
| 20260505183009 | 29 | 129 | 1.6 | 6.4 | 0.00 | 0.00 | 0.00 | 66 | 1007.1 |
| 20260505182506 | 28 | 218 | 4.8 | 12.9 | 0.00 | 0.00 | 0.00 | 67 | 1007.2 |
| 20260505182002 | 28 | 153 | 3.2 | 14.5 | 0.00 | 0.00 | 0.00 | 67 | 1007.1 |
| 20260505181459 | 28 | 161 | 6.4 | 9.7 | 0.00 | 0.00 | 0.00 | 66 | 1007.3 |
| 20260505180956 | 28 | 216 | 3.2 | 6.4 | 0.00 | 0.00 | 0.00 | 66 | 1007.2 |
| 20260505180452 | 28 | 170 | 3.2 | 20.9 | 0.00 | 0.00 | 0.00 | 66 | 1007.1 |
| 20260505175949 | 28 | 136 | 1.6 | 9.7 | 0.00 | 0.00 | 0.00 | 66 | 1007.1 |
| 20260505175445 | 28 | 137 | 3.2 | 11.3 | 0.00 | 0.00 | 0.00 | 66 | 1007.2 |
| 20260505174942 | 28 | 109 | 4.8 | 11.3 | 0.00 | 0.00 | 0.00 | 66 | 1007.1 |
| 20260505174439 | 28 | 83 | 4.8 | 14.5 | 0.00 | 0.00 | 0.00 | 66 | 1007.3 |
| 20260505173935 | 28 | 214 | 4.8 | 9.7 | 0.00 | 0.00 | 0.00 | 67 | 1007.2 |
| 20260505173432 | 28 | 299 | 3.2 | 9.7 | 0.00 | 0.00 | 0.00 | 65 | 1007.3 |
| 20260505172929 | 28 | 72 | 4.8 | 9.7 | 0.00 | 0.00 | 0.00 | 67 | 1007.3 |
| 20260505172427 | 28 | 199 | 8.0 | 14.5 | 0.00 | 0.00 | 0.00 | 67 | 1007.4 |
| 20260505171926 | 27 | 118 | 3.2 | 14.5 | 0.00 | 0.00 | 0.00 | 68 | 1007.2 |
| 20260505171424 | 27 | 74 | 1.6 | 9.7 | 0.00 | 0.00 | 0.00 | 68 | 1007.6 |
| 20260505170920 | 27 | 192 | 3.2 | 17.7 | 0.00 | 0.00 | 0.00 | 69 | 1007.3 |
| 20260505170417 | 27 | 159 | 6.4 | 11.3 | 0.00 | 0.00 | 0.00 | 68 | 1007.5 |
| 20260505165912 | 27 | 267 | 3.2 | 12.9 | 0.00 | 0.00 | 0.00 | 68 | 1007.6 |
| 20260505165408 | 27 | 143 | 1.6 | 12.9 | 0.00 | 0.00 | 0.00 | 69 | 1007.3 |
| 20260505164903 | 27 | 84 | 3.2 | 14.5 | 0.00 | 0.00 | 0.00 | 68 | 1007.2 |
| 20260505164400 | 27 | 219 | 8.0 | 22.5 | 0.00 | 0.00 | 0.00 | 69 | 1007.3 |
| 20260505163859 | 27 | 328 | 4.8 | 6.4 | 0.00 | 0.00 | 0.00 | 69 | 1007.4 |
| 20260505163357 | 27 | 56 | 3.2 | 14.5 | 0.00 | 0.00 | 0.00 | 68 | 1007.3 |
| 20260505162855 | 27 | 143 | 4.8 | 11.3 | 0.00 | 0.00 | 0.00 | 69 | 1007.2 |
| 20260505162351 | 26 | 246 | 9.7 | 24.1 | 0.00 | 0.00 | 0.00 | 71 | 1007.2 |
| 20260505161848 | 27 | 3 | 8.0 | 17.7 | 0.00 | 0.00 | 0.00 | 69 | 1007.1 |
| 20260505161345 | 27 | 139 | 12.9 | 16.1 | 0.00 | 0.00 | 0.00 | 69 | 1007.0 |
| 20260505160842 | 26 | 208 | 3.2 | 16.1 | 0.00 | 0.00 | 0.00 | 70 | 1007.0 |
| 20260505160341 | 27 | 284 | 3.2 | 12.9 | 0.00 | 0.00 | 0.00 | 70 | 1006.8 |
| 20260505153320 | 26 | 75 | 4.8 | 6.4 | 0.00 | 0.00 | 0.00 | 72 | 1007.1 |
| 20260505152817 | 26 | 191 | 6.4 | 9.7 | 0.00 | 0.00 | 0.00 | 72 | 1007.3 |
| 20260505152314 | 26 | 177 | 3.2 | 16.1 | 0.00 | 0.00 | 0.00 | 74 | 1007.1 |
| 20260505151813 | 26 | 48 | 3.2 | 4.8 | 0.00 | 0.00 | 0.00 | 75 | 1007.2 |
| 20260505151310 | 25 | 147 | 1.6 | 4.8 | 0.00 | 0.00 | 0.00 | 75 | 1007.2 |
| 20260505150807 | 25 | 41 | 4.8 | 11.3 | 0.00 | 0.00 | 0.00 | 76 | 1007.1 |
| 20260505150304 | 25 | 124 | 4.8 | 11.3 | 0.00 | 0.00 | 0.00 | 77 | 1007.1 |
| 20260505140229 | 22 | 183 | 3.2 | 6.4 | 0.00 | 0.00 | 0.00 | 83 | 1007.0 |
| 20260505130153 | 22 | 106 | 4.8 | 14.5 | 0.00 | 0.00 | 0.00 | 84 | 1006.9 |
| 20260505124643 | 22 | 186 | 0.0 | 4.8 | 0.00 | 0.00 | 0.00 | 85 | 1006.8 |
| 20260505124139 | 22 | 144 | 3.2 | 9.7 | 0.00 | 0.00 | 0.00 | 85 | 1006.7 |
| 20260505123635 | 21 | 211 | 4.8 | 9.7 | 0.00 | 0.00 | 0.00 | 85 | 1006.5 |
| 20260505123132 | 21 | 133 | 3.2 | 12.9 | 0.00 | 0.00 | 0.00 | 86 | 1006.6 |
| 20260505122629 | 21 | 62 | 0.0 | 6.4 | 0.00 | 0.00 | 0.00 | 86 | 1006.5 |
| 20260505122126 | 21 | 58 | 1.6 | 9.7 | 0.00 | 0.00 | 0.00 | 85 | 1006.5 |
| 20260505121622 | 21 | 139 | 3.2 | 14.5 | 0.00 | 0.00 | 0.00 | 86 | 1006.4 |
| 20260505121119 | 21 | 211 | 6.4 | 9.7 | 0.00 | 0.00 | 0.00 | 86 | 1006.5 |
| 20260505120615 | 21 | 213 | 6.4 | 11.3 | 0.00 | 0.00 | 0.00 | 86 | 1006.3 |
| 20260505120112 | 21 | 184 | 3.2 | 4.8 | 0.00 | 0.00 | 0.00 | 86 | 1006.4 |
| 20260505115606 | 21 | 17 | 6.4 | 11.3 | 0.00 | 0.00 | 0.00 | 86 | 1006.3 |
| 20260505115104 | 21 | 143 | 1.6 | 6.4 | 0.00 | 0.00 | 0.00 | 85 | 1006.4 |
| 20260505114600 | 21 | 89 | 3.2 | 6.4 | 0.00 | 0.00 | 0.00 | 85 | 1006.2 |
| 20260505114057 | 21 | 222 | 3.2 | 6.4 | 0.00 | 0.00 | 0.00 | 85 | 1006.4 |
| 20260505113553 | 21 | 174 | 4.8 | 6.4 | 0.00 | 0.00 | 0.00 | 86 | 1006.2 |
| 20260505113050 | 21 | 126 | 0.0 | 6.4 | 0.00 | 0.00 | 0.00 | 85 | 1006.0 |
| 20260505112546 | 21 | 334 | 4.8 | 4.8 | 0.00 | 0.00 | 0.00 | 85 | 1005.9 |
| 20260505112045 | 21 | 95 | 1.6 | 4.8 | 0.00 | 0.00 | 0.00 | 85 | 1005.9 |
| 20260505111538 | 21 | 175 | 6.4 | 14.5 | 0.00 | 0.00 | 0.00 | 85 | 1006.3 |
| 20260505111035 | 21 | 242 | 9.7 | 12.9 | 0.00 | 0.00 | 0.00 | 86 | 1005.9 |
| 20260505110531 | 21 | 129 | 3.2 | 11.3 | 0.00 | 0.00 | 0.00 | 86 | 1006.0 |
| 20260505102004 | 21 | 91 | 6.4 | 14.5 | 0.00 | 0.00 | 0.00 | 85 | 1006.1 |
| 20260505101501 | 21 | 154 | 3.2 | 9.7 | 0.00 | 0.00 | 0.00 | 85 | 1006.1 |
| 20260505100958 | 21 | 206 | 9.7 | 20.9 | 0.00 | 0.00 | 0.00 | 84 | 1006.1 |
| 20260505100455 | 21 | 141 | 3.2 | 6.4 | 0.00 | 0.00 | 0.00 | 84 | 1006.3 |
| 20260505095951 | 21 | 232 | 1.6 | 11.3 | 0.00 | 0.00 | 0.00 | 84 | 1006.2 |
| 20260505095448 | 22 | 350 | 6.4 | 14.5 | 0.00 | 0.00 | 0.00 | 84 | 1006.3 |
| 20260505094944 | 22 | 248 | 4.8 | 9.7 | 0.00 | 0.00 | 0.00 | 84 | 1006.2 |
| 20260505094441 | 22 | 264 | 3.2 | 9.7 | 0.00 | 0.00 | 0.00 | 84 | 1006.2 |
| 20260505093937 | 22 | 259 | 4.8 | 12.9 | 0.00 | 0.00 | 0.00 | 84 | 1006.2 |
| 20260505093434 | 21 | 6 | 0.0 | 9.7 | 0.00 | 0.00 | 0.00 | 84 | 1006.5 |
| 20260505092931 | 21 | 112 | 6.4 | 12.9 | 0.00 | 0.00 | 0.00 | 85 | 1006.4 |
| 20260505092429 | 21 | 99 | 6.4 | 9.7 | 0.00 | 0.00 | 0.00 | 85 | 1006.6 |
| 20260505091926 | 21 | 202 | 1.6 | 4.8 | 0.00 | 0.00 | 0.00 | 85 | 1006.7 |
| 20260505091424 | 21 | 191 | 1.6 | 6.4 | 0.00 | 0.00 | 0.00 | 85 | 1006.7 |
| 20260505090921 | 21 | 331 | 4.8 | 11.3 | 0.00 | 0.00 | 0.00 | 85 | 1006.7 |
| 20260505090420 | 21 | 269 | 1.6 | 14.5 | 0.00 | 0.00 | 0.00 | 85 | 1006.6 |
| 20260505085917 | 21 | 134 | 3.2 | 6.4 | 0.00 | 0.00 | 0.00 | 85 | 1006.5 |
| 20260505085415 | 21 | 72 | 4.8 | 6.4 | 0.00 | 0.00 | 0.00 | 85 | 1006.5 |
| 20260505084912 | 21 | 102 | 8.0 | 12.9 | 0.00 | 0.00 | 0.00 | 85 | 1006.4 |
| 20260505084410 | 21 | 234 | 3.2 | 6.4 | 0.00 | 0.00 | 0.00 | 85 | 1006.7 |
| 20260505083908 | 21 | 159 | 3.2 | 9.7 | 0.00 | 0.00 | 0.00 | 85 | 1006.6 |
| 20260505083405 | 21 | 128 | 3.2 | 9.7 | 0.00 | 0.00 | 0.00 | 85 | 1006.6 |
| 20260505082901 | 21 | 87 | 3.2 | 11.3 | 0.00 | 0.00 | 0.00 | 85 | 1006.6 |
| 20260505082357 | 21 | 358 | 9.7 | 14.5 | 0.00 | 0.00 | 0.00 | 85 | 1006.5 |
| 20260505081854 | 21 | 167 | 4.8 | 9.7 | 0.00 | 0.00 | 0.00 | 85 | 1006.8 |
| 20260505081351 | 21 | 100 | 1.6 | 6.4 | 0.00 | 0.00 | 0.00 | 85 | 1006.9 |
| 20260505080848 | 21 | 131 | 9.7 | 14.5 | 0.00 | 0.00 | 0.00 | 85 | 1006.6 |
| 20260505080344 | 21 | 154 | 3.2 | 9.7 | 0.00 | 0.00 | 0.00 | 84 | 1006.8 |
| 20260505075839 | 21 | 239 | 6.4 | 12.9 | 0.00 | 0.00 | 0.00 | 84 | 1006.7 |
| 20260505075336 | 21 | 177 | 4.8 | 14.5 | 0.00 | 0.00 | 0.00 | 84 | 1006.8 |
| 20260505074833 | 21 | 106 | 6.4 | 11.3 | 0.00 | 0.00 | 0.00 | 84 | 1006.9 |
| 20260505074330 | 21 | 188 | 3.2 | 24.1 | 0.00 | 0.00 | 0.00 | 83 | 1006.9 |
| 20260505073828 | 21 | 79 | 3.2 | 4.8 | 0.00 | 0.00 | 0.00 | 83 | 1007.1 |
| 20260505073326 | 21 | 165 | 6.4 | 14.5 | 0.00 | 0.00 | 0.00 | 83 | 1007.1 |
| 20260505072822 | 21 | 184 | 8.0 | 11.3 | 0.00 | 0.00 | 0.00 | 83 | 1007.0 |
| 20260505072319 | 22 | 129 | 6.4 | 14.5 | 0.00 | 0.00 | 0.00 | 82 | 1007.3 |
| 20260505071815 | 22 | 188 | 8.0 | 11.3 | 0.00 | 0.00 | 0.00 | 82 | 1007.5 |
| 20260505071311 | 22 | 242 | 3.2 | 11.3 | 0.00 | 0.00 | 0.00 | 82 | 1007.3 |
| 20260505070810 | 22 | 135 | 8.0 | 11.3 | 0.00 | 0.00 | 0.00 | 82 | 1007.4 |
| 20260505070306 | 22 | 97 | 6.4 | 9.7 | 0.00 | 0.00 | 0.00 | 81 | 1007.3 |
| 20260505065800 | 22 | 205 | 8.0 | 17.7 | 0.00 | 0.00 | 0.00 | 81 | 1007.6 |
| 20260505065258 | 22 | 122 | 1.6 | 11.3 | 0.00 | 0.00 | 0.00 | 81 | 1007.4 |
| 20260505064755 | 22 | 190 | 1.6 | 11.3 | 0.00 | 0.00 | 0.00 | 81 | 1007.6 |
| 20260505064252 | 22 | 9 | 4.8 | 14.5 | 0.00 | 0.00 | 0.00 | 80 | 1007.7 |
| 20260505063750 | 22 | 148 | 6.4 | 11.3 | 0.00 | 0.00 | 0.00 | 80 | 1007.7 |
| 20260505063246 | 22 | 186 | 3.2 | 11.3 | 0.00 | 0.00 | 0.00 | 80 | 1007.7 |
| 20260505062743 | 22 | 160 | 4.8 | 14.5 | 0.00 | 0.00 | 0.00 | 80 | 1007.5 |
| 20260505062240 | 22 | 266 | 3.2 | 6.4 | 0.00 | 0.00 | 0.00 | 80 | 1007.5 |
| 20260505061737 | 22 | 105 | 4.8 | 22.5 | 0.00 | 0.00 | 0.00 | 79 | 1007.8 |
| 20260505061235 | 22 | 146 | 6.4 | 6.4 | 0.00 | 0.00 | 0.00 | 79 | 1007.7 |
| 20260505060732 | 22 | 99 | 3.2 | 9.7 | 0.00 | 0.00 | 0.00 | 79 | 1007.8 |
| 20260505060229 | 22 | 121 | 4.8 | 14.5 | 0.00 | 0.00 | 0.00 | 78 | 1008.0 |
| 20260505055724 | 22 | 144 | 3.2 | 9.7 | 0.00 | 0.00 | 0.00 | 78 | 1008.0 |
| 20260505055221 | 22 | 248 | 4.8 | 9.7 | 0.00 | 0.00 | 0.00 | 78 | 1007.9 |
| 20260505054718 | 22 | 80 | 6.4 | 9.7 | 0.00 | 0.00 | 0.00 | 77 | 1008.2 |
| 20260505054216 | 22 | 193 | 3.2 | 16.1 | 0.00 | 0.00 | 0.00 | 77 | 1008.0 |
| 20260505053714 | 22 | 23 | 6.4 | 17.7 | 0.00 | 0.00 | 0.00 | 77 | 1008.4 |
| 20260505053210 | 22 | 134 | 3.2 | 9.7 | 0.00 | 0.00 | 0.00 | 77 | 1008.3 |
| 20260505052708 | 22 | 113 | 3.2 | 9.7 | 0.00 | 0.00 | 0.00 | 76 | 1008.2 |
| 20260505052204 | 22 | 134 | 3.2 | 6.4 | 0.00 | 0.00 | 0.00 | 76 | 1008.3 |
| 20260505051701 | 22 | 97 | 3.2 | 16.1 | 0.00 | 0.00 | 0.00 | 76 | 1008.4 |
| 20260505051159 | 22 | 220 | 4.8 | 9.7 | 0.00 | 0.00 | 0.00 | 76 | 1008.4 |
| 20260505050657 | 22 | 180 | 6.4 | 14.5 | 0.00 | 0.00 | 0.00 | 75 | 1008.4 |
| 20260505050156 | 22 | 105 | 3.2 | 17.7 | 0.00 | 0.00 | 0.00 | 75 | 1008.3 |
| 20260505041631 | 23 | 128 | 4.8 | 22.5 | 0.00 | 0.00 | 0.00 | 73 | 1008.6 |
| 20260505041128 | 23 | 200 | 4.8 | 24.1 | 0.00 | 0.00 | 0.00 | 72 | 1008.6 |
| 20260505040625 | 23 | 140 | 4.8 | 9.7 | 0.00 | 0.00 | 0.00 | 72 | 1008.7 |
| 20260505040122 | 23 | 249 | 4.8 | 11.3 | 0.00 | 0.00 | 0.00 | 72 | 1008.6 |